[[{"header":{"parameterUnit":"m.s-1","parameterCategory":1,"la1":30.2991,"la2":30.254,"lo1":-89.0895,"lo2":-89.0444,"dy":0.0017,"dx":0.0017,"nx":28,"ny":28,"refTime":"2024-08-15T03:00:00:Z","depth":0,"parameterNumber":2,"parameterNumberName":"U-component_of_WINDS"},"data":[0,0,0,0,0,0,0,0,0,0,0,0,0,0,0,0,0,0,0,0,0,0,0,0,0,0,0,0,0,0,0,0,0,0,0,0,0,0,0,0,0,0,0,0,0,0,0,0,0,0,0,0,0,0,0,0,0,0,-1.0601,-1.0603,0,-1.0786,-1.0788,-1.079,-1.0859,-1.0858,-1.0858,-1.0857,-1.1054,-1.106,-1.1066,0,0,0,0,0,0,0,0,0,0,0,0,0,-1.0315,-1.032,-1.0601,-1.0603,-1.0606,-1.0786,-1.0788,-1.0791,-1.0859,-1.0858,-1.0857,-1.0857,-1.1052,-1.1059,-1.1066,0,0,0,0,0,0,0,0,0,0,0,0,0,-1.0464,-1.0321,-1.0601,-1.0661,-1.0668,-1.0785,-1.0788,-1.0792,-1.0859,-1.0858,-1.0857,-1.0856,-1.105,-1.1059,-1.1067,-1.114,0,0,-1.1094,-1.1098,0,0,0,0,0,0,0,0,-1.0455,-1.0474,-1.065,-1.0657,-1.0666,-1.0798,-1.076,-1.0909,-1.0859,-1.0787,-1.0857,-1.0856,-1.097,-1.0986,-1.1023,-1.1149,-1.1158,-1.1095,-1.11,-1.1104,-1.1106,0,0,0,0,0,0,0,-1.0445,-1.0467,-1.0675,-1.0652,-1.0662,-1.0682,-1.0702,-1.0788,-1.0882,-1.0793,-1.0799,-1.0819,-1.0975,-1.1014,-1.1028,-1.1161,-1.1095,-1.1102,-1.1108,-1.1111,-1.1357,-1.1358,0,0,0,0,0,0,-1.0423,-1.0457,-1.0669,-1.068,-1.0556,-1.0688,-1.071,-1.0757,-1.0881,-1.0899,-1.082,-1.0822,-1.1,-1.1018,-1.1035,-1.1129,-1.1104,-1.1112,-1.1117,-1.1356,-1.1357,-1.1359,0,0,0,0,0,0,-1.0417,-1.0441,-1.0661,-1.057,-1.06,-1.0693,-1.0745,-1.0761,-1.08,-1.0901,-1.0919,-1.0842,-1.1,-1.1023,-1.1113,-1.1136,-1.1116,-1.1124,-1.1354,-1.1356,-1.1358,-1.1316,0,0,0,0,0,0,-1.0408,-1.0439,-1.0465,-1.057,-1.0604,-1.0734,-1.0747,-1.0765,-1.0814,-1.0819,-1.0927,-1.0944,-1.1001,-1.11,-1.1122,-1.1148,-1.1131,-1.1353,-1.1355,-1.1357,-1.1316,-1.1316,-1.1316,0,0,0,0,0,-1.0398,-1.0448,-1.0466,-1.0491,-1.0639,-1.0735,-1.0755,-1.0816,-1.0816,-1.0845,-1.091,-1.0941,-1.113,-1.1108,-1.1134,-1.1163,-1.1351,-1.1354,-1.1357,-1.1315,-1.1316,-1.1316,0,0,0,0,0,0,-1.0346,-1.0463,-1.0485,-1.0569,-1.0641,-1.0746,-1.0784,-1.0815,-1.089,-1.0892,-1.0967,-1.0991,-1.1076,-1.1129,-1.1102,-1.124,-1.1243,-1.1251,-1.1202,-1.1204,-1.1204,-1.119,-1.1138,0,0,0,0,0,-1.0344,-1.0409,-1.0509,-1.0574,-1.0609,-1.069,-1.0734,-1.0775,-1.0854,-1.0885,-1.0957,-1.1034,-1.1111,-1.1161,-1.1237,-1.1323,-1.1349,-1.1356,-1.1357,-1.1357,-1.1363,-1.1413,-1.1418,-1.1368,-1.1368,-1.1368,0,0,-1.0342,-1.0414,-1.0451,-1.0566,-1.0626,-1.0694,-1.0716,-1.0787,-1.0839,-1.0897,-1.0986,-1.1041,-1.1133,-1.1221,-1.1264,-1.1268,-1.1382,-1.136,-1.1359,-1.1366,-1.1417,-1.1421,-1.1425,-1.137,-1.137,-1.1369,0,0,-1.0372,-1.0432,-1.0493,-1.0553,-1.0643,-1.0697,-1.0711,-1.0811,-1.0849,-1.0939,-1.0984,-1.1049,-1.1179,-1.1243,-1.1292,-1.1345,-1.1377,-1.1368,-1.1371,-1.1419,-1.1423,-1.1427,-1.1447,-1.1453,-1.1374,-1.1374,-1.1374,0,-1.0359,-1.046,-1.0522,-1.059,-1.064,-1.0693,-1.0757,-1.0813,-1.0924,-1.0959,-1.0961,-1.1126,-1.1192,-1.1296,-1.1308,-1.1346,-1.1367,-1.1357,-1.1417,-1.1422,-1.1426,-1.1446,-1.1453,-1.1373,-1.1373,-1.1373,-1.1373,0,-1.044,-1.051,-1.0549,-1.0651,-1.0706,-1.0772,-1.0845,-1.0894,-1.093,-1.0984,-1.1075,-1.1155,-1.1249,-1.1277,-1.1314,-1.1386,-1.1386,-1.1402,-1.1406,-1.1428,-1.1448,-1.1456,-1.137,-1.1371,-1.1371,-1.1372,0,0,-1.0444,-1.0578,-1.0592,-1.0639,-1.0742,-1.0799,-1.0868,-1.0956,-1.0997,-1.1072,-1.1133,-1.1242,-1.1257,-1.1313,-1.1358,-1.14,-1.1437,-1.1411,-1.1414,-1.1413,-1.1523,-1.1511,-1.1518,-1.1459,-1.146,-1.1462,-1.1516,0,-1.0488,-1.061,-1.0667,-1.0765,-1.0831,-1.0882,-1.0942,-1.1013,-1.1066,-1.1132,-1.1191,-1.1267,-1.128,-1.1314,-1.1358,-1.1423,-1.1461,-1.142,-1.1518,-1.1521,-1.1494,-1.1529,-1.1516,-1.1563,-1.1524,-1.1525,-1.1526,0,-1.0556,-1.0627,-1.0731,-1.0825,-1.0856,-1.0908,-1.0994,-1.1056,-1.1138,-1.1173,-1.1235,-1.1278,-1.1355,-1.1353,-1.1461,-1.1432,-1.1475,-1.1514,-1.1517,-1.1529,-1.1525,-1.1542,-1.1579,-1.1586,-1.1539,-1.1538,-1.1537,0,-1.0548,-1.0671,-1.0749,-1.0788,-1.0901,-1.0936,-1.0986,-1.1067,-1.1116,-1.1192,-1.1226,-1.131,-1.1357,-1.1423,-1.1489,-1.1481,-1.1591,-1.1594,-1.1624,-1.1622,-1.1645,-1.1643,-1.169,-1.1672,-1.1672,-1.1672,-1.1672,0,-1.0592,-1.0653,-1.0747,-1.0795,-1.0866,-1.0932,-1.1001,-1.1055,-1.1126,-1.1187,-1.1238,-1.1295,-1.1377,-1.1445,-1.1498,-1.1579,-1.16,-1.1632,-1.1646,-1.1628,-1.1624,-1.1658,-1.1657,-1.1674,-1.1673,-1.1673,-1.1672,0,-1.0596,-1.0661,-1.0749,-1.0847,-1.0873,-1.0921,-1.1007,-1.1057,-1.1111,-1.1188,-1.121,-1.1296,-1.1378,-1.145,-1.156,-1.1595,-1.1679,-1.1695,-1.165,-1.1657,-1.1683,-1.168,-1.1754,-1.1768,-1.174,-1.174,-1.174,0,-1.062,-1.0668,-1.077,-1.0813,-1.086,-1.0929,-1.0979,-1.1046,-1.1097,-1.1194,-1.1233,-1.1318,-1.139,-1.152,-1.1594,-1.1678,-1.1697,-1.1717,-1.171,-1.1691,-1.1698,-1.1694,-1.17,-1.1718,-1.1718,-1.1717,-1.1717,0,-1.0655,-1.0684,-1.0752,-1.0832,-1.0889,-1.0956,-1.1025,-1.1058,-1.1139,-1.1194,-1.1277,-1.1332,-1.1443,-1.1528,-1.162,-1.1674,-1.171,-1.1719,-1.173,-1.1713,-1.1685,-1.1701,-1.1651,-1.1717,-1.1717,-1.1717,-1.1717,-1.1717,-1.067,-1.0715,-1.0793,-1.0868,-1.0926,-1.0989,-1.104,-1.1099,-1.1169,-1.1262,-1.1299,-1.1384,-1.1466,-1.1593,-1.1647,-1.1716,-1.1722,-1.1739,-1.1743,-1.1746,-1.1743,-1.1673,-1.1734,-1.1734,-1.1734,-1.1734,-1.1734,0,-1.0708,-1.0761,-1.0829,-1.0921,-1.098,-1.1006,-1.1083,-1.1132,-1.1205,-1.1277,-1.1346,-1.1442,-1.1525,-1.1604,-1.1692,-1.1732,-1.1751,-1.1753,-1.1751,-1.1763,-1.1733,-1.1714,-1.1736,-1.1736,-1.1736,-1.1736,-1.1736,-1.1736,-1.0735,-1.0812,-1.0851,-1.0958,-1.1011,-1.1092,-1.1134,-1.1193,-1.1251,-1.1355,-1.1422,-1.1473,-1.1549,-1.1642,-1.1719,-1.1741,-1.1771,-1.1769,-1.1795,-1.1766,-1.1765,-1.1764,-1.1747,-1.1774,-1.1774,-1.1819,-1.1819,-1.1819]},{"header":{"parameterUnit":"m.s-1","parameterCategory":1,"la1":30.2991,"la2":30.254,"lo1":-89.0895,"lo2":-89.0444,"dy":0.0017,"dx":0.0017,"nx":28,"ny":28,"refTime":"2024-08-15T03:00:00:Z","depth":0,"parameterNumber":3,"parameterNumberName":"V-component_of_WINDS"},"data":[0,0,0,0,0,0,0,0,0,0,0,0,0,0,0,0,0,0,0,0,0,0,0,0,0,0,0,0,0,0,0,0,0,0,0,0,0,0,0,0,0,0,0,0,0,0,0,0,0,0,0,0,0,0,0,0,0,0,0.1795,0.1797,0,0.1943,0.1945,0.1946,0.2048,0.2049,0.205,0.205,0.2199,0.2203,0.2206,0,0,0,0,0,0,0,0,0,0,0,0,0,0.1598,0.1601,0.1795,0.1797,0.1799,0.1943,0.1945,0.1947,0.2048,0.2049,0.205,0.2051,0.2198,0.2202,0.2206,0,0,0,0,0,0,0,0,0,0,0,0,0,0.1708,0.1602,0.1795,0.1867,0.1875,0.1942,0.1945,0.1947,0.2048,0.2049,0.205,0.2051,0.2197,0.2202,0.2207,0.2214,0,0,0.2221,0.2224,0,0,0,0,0,0,0,0,0.1702,0.1715,0.1854,0.1862,0.1871,0.1978,0.193,0.2036,0.2048,0.1982,0.2051,0.2052,0.2125,0.2136,0.2161,0.2221,0.2227,0.2222,0.2225,0.2227,0.2228,0,0,0,0,0,0,0,0.1694,0.171,0.1854,0.1856,0.1866,0.1891,0.1908,0.1951,0.2045,0.1988,0.1996,0.2012,0.2129,0.2156,0.2165,0.2229,0.2222,0.2226,0.2229,0.2231,0.2301,0.23,0,0,0,0,0,0,0.1675,0.1703,0.1849,0.1858,0.1788,0.1893,0.1912,0.1943,0.2045,0.2062,0.2011,0.2016,0.2147,0.2159,0.2171,0.2185,0.2227,0.2231,0.2234,0.2302,0.2301,0.23,0,0,0,0,0,0,0.1671,0.1688,0.1843,0.1783,0.1804,0.1896,0.1929,0.1945,0.1972,0.2062,0.2079,0.202,0.2148,0.2164,0.2202,0.2192,0.2234,0.2238,0.2303,0.2302,0.23,0.2215,0,0,0,0,0,0,0.1665,0.1685,0.169,0.1782,0.1807,0.1873,0.1928,0.1947,0.198,0.1988,0.2076,0.2091,0.215,0.2194,0.2207,0.2199,0.2242,0.2305,0.2303,0.2301,0.2219,0.221,0.2203,0,0,0,0,0,0.1657,0.1659,0.1689,0.1707,0.1814,0.1872,0.1886,0.1955,0.1979,0.1983,0.2041,0.2089,0.2191,0.2197,0.2212,0.2206,0.2306,0.2303,0.2301,0.2222,0.2212,0.2203,0,0,0,0,0,0,0.1563,0.1673,0.1707,0.1739,0.1795,0.1889,0.1897,0.1942,0.1992,0.1997,0.2079,0.2098,0.2128,0.2171,0.2176,0.2218,0.2254,0.2254,0.2189,0.218,0.2172,0.2161,0.2246,0,0,0,0,0,0.1546,0.1584,0.1678,0.1697,0.1723,0.1805,0.1833,0.188,0.1942,0.1966,0.2027,0.2084,0.2129,0.2157,0.2203,0.2225,0.2245,0.2228,0.222,0.2213,0.2213,0.2227,0.222,0.2292,0.2292,0.2292,0,0,0.1511,0.1576,0.1595,0.1679,0.1729,0.1766,0.1824,0.1861,0.1889,0.1971,0.2012,0.2058,0.2127,0.2157,0.2173,0.2193,0.2197,0.221,0.2204,0.2208,0.2224,0.2217,0.2211,0.229,0.2291,0.2291,0,0,0.1467,0.1519,0.1541,0.1589,0.1663,0.1717,0.1722,0.1809,0.1843,0.1885,0.1947,0.198,0.2056,0.2103,0.2136,0.2108,0.2153,0.212,0.2079,0.2092,0.2086,0.2082,0.2071,0.2067,0.2119,0.2119,0.2119,0,0.1414,0.1473,0.1546,0.1579,0.1614,0.1691,0.1712,0.1755,0.184,0.1862,0.1884,0.198,0.2032,0.2073,0.2066,0.2091,0.2099,0.2111,0.2081,0.2078,0.2074,0.2065,0.2061,0.2115,0.2115,0.2116,0.2116,0,0.1404,0.1444,0.1452,0.1532,0.1568,0.1595,0.1672,0.1699,0.1743,0.1794,0.1835,0.19,0.196,0.1974,0.2017,0.2021,0.2032,0.2066,0.2104,0.2062,0.2055,0.2052,0.2108,0.211,0.2111,0.2112,0,0,0.1305,0.1425,0.1427,0.1464,0.1551,0.1582,0.1612,0.1672,0.1693,0.1749,0.1775,0.1837,0.187,0.1908,0.1957,0.1968,0.194,0.2001,0.2004,0.1988,0.1948,0.1922,0.1916,0.1971,0.197,0.197,0.1942,0,0.1273,0.1332,0.1399,0.1434,0.1471,0.1544,0.157,0.1625,0.1673,0.1711,0.1764,0.1807,0.1846,0.187,0.1884,0.1941,0.1934,0.1944,0.1996,0.1997,0.1976,0.1913,0.1885,0.1856,0.194,0.194,0.1939,0,0.1245,0.1297,0.1336,0.1419,0.1437,0.1459,0.1519,0.1554,0.1618,0.1652,0.1694,0.1746,0.178,0.1813,0.1861,0.1866,0.1891,0.1922,0.1922,0.193,0.1965,0.1919,0.1849,0.1844,0.1936,0.1936,0.1936,0,0.1168,0.1248,0.1282,0.1312,0.1409,0.1422,0.1463,0.1528,0.156,0.1611,0.1633,0.1687,0.1717,0.1757,0.1823,0.1841,0.1863,0.1902,0.1892,0.189,0.1894,0.1892,0.1826,0.1909,0.1909,0.1909,0.1909,0,0.1126,0.1147,0.1249,0.1269,0.1295,0.137,0.1393,0.144,0.1497,0.1527,0.1593,0.162,0.1705,0.1741,0.1792,0.1824,0.1836,0.1865,0.1878,0.1859,0.1855,0.1877,0.188,0.1908,0.1908,0.1909,0.1909,0,0.1045,0.1114,0.1156,0.1244,0.1267,0.1281,0.1357,0.1379,0.1431,0.1468,0.1481,0.1562,0.1609,0.1678,0.1745,0.1779,0.1802,0.1824,0.1781,0.1789,0.1775,0.1775,0.1721,0.1717,0.1801,0.18,0.18,0,0.1014,0.1032,0.1122,0.1147,0.1186,0.1226,0.1259,0.1333,0.1364,0.1437,0.145,0.1502,0.1547,0.1617,0.1682,0.1733,0.1757,0.1734,0.1765,0.1745,0.1756,0.1754,0.1756,0.1726,0.1725,0.1724,0.1723,0,0.0951,0.0984,0.1028,0.1085,0.1121,0.1169,0.122,0.1237,0.1322,0.1353,0.1401,0.1436,0.1505,0.1555,0.1615,0.1656,0.1703,0.1713,0.1714,0.1694,0.1668,0.1682,0.1761,0.1714,0.1715,0.1716,0.1716,0.1717,0.0894,0.0913,0.0979,0.1026,0.1072,0.1118,0.1143,0.1198,0.124,0.1302,0.1343,0.1389,0.1451,0.1537,0.1576,0.1612,0.1632,0.1633,0.1633,0.1632,0.1625,0.1662,0.1623,0.1624,0.1624,0.1624,0.1625,0,0.0834,0.088,0.0923,0.0992,0.1028,0.107,0.1128,0.1156,0.1196,0.125,0.1293,0.1348,0.1397,0.1465,0.1518,0.1534,0.1557,0.1546,0.1546,0.1554,0.1604,0.1598,0.1526,0.1526,0.1526,0.1526,0.1526,0.1526,0.0807,0.0841,0.0882,0.0939,0.0985,0.1031,0.1061,0.1103,0.1147,0.1205,0.1246,0.1291,0.135,0.1408,0.1454,0.1473,0.149,0.1471,0.1496,0.1542,0.1551,0.1559,0.1554,0.1474,0.1474,0.1444,0.1443,0.1443]}]]